Regional Weather Roundup
Issued by NWS

Home | Current Version | Previous Version | Text Only | Print | Product List | Glossary Off
Versions: 1 2 3 4 5 6 7 8 9 10 11 12 13 14 15 16 17 18 19 20 21 22 23 24 25 26 27 28 29 30 31 32 33 34 35 36 37 38 39 40 41 42 43 44 45 46 47 48 49 50

000
ASUS45 KBOU 312110
RWRCO

WEATHER ROUNDUP FOR COLORADO
NATIONAL WEATHER SERVICE PUEBLO CO
300 PM MDT FRI JUL 31 2015

NOTE: "FAIR" INDICATES FEW OR NO CLOUDS BELOW 12000 FEET WITH NO
SIGNIFICANT WEATHER AND/OR OBSTRUCTIONS TO VISIBILITY.

COZ001>005-013-030-031-312200-
...NORTHWEST COLORADO...

CITY           SKY/WX    TMP DP  RH WIND       PRES   REMARKS
CRAIG          SUNNY     92  26   9 VRB3      30.28F
HAYDEN         SUNNY     86  25  10 N6G18     30.31F
MEEKER         SUNNY     89  26  10 VRB3      30.29F
MOUNT WERNER   NOT AVBL
STEAMBOAT SPGS FAIR      85  26  11 CALM      30.32F
WALDEN         FAIR      79  27  14 CALM      30.44S
$$

COZ006>008-011-312200-
...WEST CENTRAL VALLEYS...

CITY           SKY/WX    TMP DP  RH WIND       PRES   REMARKS
GRAND JUNCTION SUNNY     91  37  15 NW12      30.17F
MONTROSE       MOSUNNY   86  40  19 N5        30.26F
EAGLE          MOSUNNY   88  30  12 CALM      30.29F
RIFLE          SUNNY     93  21   7 VRB3      30.21F
DELTA          NOT AVBL
NUCLA          FAIR      84  46  26 N3        30.32F
$$

COZ017>023-064>068-312200-
...SOUTHWEST COLORADO...

CITY           SKY/WX    TMP DP  RH WIND       PRES   REMARKS
DURANGO        PTSUNNY   77  50  38 SE7       30.37F
CORTEZ         MOSUNNY   80  54  40 SW9       30.30F
PAGOSA SPRINGS CLOUDY    72  50  45 NW5       30.46S
TELLURIDE      PTSUNNY   69  46  43 SW6       30.56S
WOLF CREEK PAS NOT AVBL
$$

COZ009-010-012-014-032>034-037-058>063-312200-
...CENTRAL COLORADO...

CITY           SKY/WX    TMP DP  RH WIND       PRES   REMARKS
ASPEN          PTSUNNY   75  42  30 SE13      30.42S
BUENA VISTA    CLOUDY    79  39  24 CALM      30.44F
COPPER MTN     CLOUDY    64  36  34 W13G18    30.77F
BERTHOUD PASS  PTSUNNY   50  39  66 SE13      30.83S
COTTONWOOD PAS PTSUNNY   72  36  26 CALM      30.60F
GUNNISON       PTSUNNY   73  46  38 S9        30.44S
KREMMLING      MOSUNNY   88  25  10 NW9       30.37F
LEADVILLE      PTSUNNY   66  33  29 S9        30.58F
MONARCH PASS   DRIZZLE   55  37  50 NE13      30.86F
SALIDA         FAIR      81  35  19 S3        30.47F
NIWOT RIDGE    NOT AVBL
SUNLIGHT       MOSUNNY   70  28  21 NW3       30.70S
WILKERSON PASS CLOUDY    59  43  55 SE6       30.74S
$$

COZ069>075-312200-
...SAN LUIS VALLEY/SANGRE DE CRISTO MOUNTAINS...

CITY           SKY/WX    TMP DP  RH WIND       PRES   REMARKS
ALAMOSA        MOSUNNY   78  45  30 VRB6      30.40F
LA VETA PASS   CLOUDY    64  43  45 MISG      30.63F
SAGUACHE       MOSUNNY   77  46  33 SW7       30.44F
$$

COZ035-036-038>040-312200-
...NORTHERN COLORADO FRONT RANGE...

CITY           SKY/WX    TMP DP  RH WIND       PRES   REMARKS
DENVER INTL AP MOSUNNY   89  45  21 S16       30.26F
DMNS CITY PARK NOT AVBL
AURORA         PTSUNNY   86  47  26 E13       30.28F
FRONT RANGE AP PTSUNNY   86  45  23 MISG      30.28F
ERIE MUNI ARPT FAIR      88  40  18 SE6       30.23F
BOULDER MUN AP FAIR      90  41  18 S3        30.24F
CENTENNIAL     PTSUNNY   82  47  29 SE9       30.30S
BROOMFIELD     PTSUNNY   86  45  23 E6        30.29F
LOVELAND       MOSUNNY   88  48  25 SE9       30.22F
LONGMONT       FAIR      89  41  18 E7        30.25S
$$

COZ041-046-047-076>085-087-088-312200-
...PIKES PEAK/PALMER DIVIDE AND SOUTHERN FOOTHILLS...

CITY           SKY/WX    TMP DP  RH WIND       PRES   REMARKS
COLO. SPRINGS  PTSUNNY   83  48  29 SE8       30.34F
A. F. ACADEMY  MOSUNNY   82  49  32 S15G24    30.35F
ELLICOTT       FAIR     N/A N/A N/A SE6       30.33F
FALCON         FAIR      80  47  30 SE5       30.40F
FORT CARSON    MOSUNNY   85  51  30 VRB1      30.30F
LIMON          MOSUNNY   84  53  34 SE10G17   30.29F
MONUMENT HILL  MOSUNNY   79  46  31 S8G16     30.40F
TRINIDAD       MOSUNNY   85  53  33 VRB7      30.27F
$$

COZ042>045-048>051-090-091-312200-
...NORTHEAST COLORADO...

CITY           SKY/WX    TMP DP  RH WIND       PRES   REMARKS
GREELEY ARPT   MOSUNNY   91  48  22 E13       30.23F
AKRON          SUNNY     89  44  20 VRB6      30.24F
BURLINGTON     MOSUNNY   86  56  35 S12       30.24F
WRAY           FAIR      95  47  19 S7        30.18F
STERLING       FAIR      91  48  22 S6        30.18F
HOLYOKE        NOT AVBL
FORT MORGAN    FAIR      92  40  16 SE6       30.23F
$$

COZ086-089-092>099-312200-
...SOUTHEAST COLORADO...

CITY           SKY/WX    TMP DP  RH WIND       PRES   REMARKS
PUEBLO         MOSUNNY   90  53  28 VRB3      30.21F
LA JUNTA       SUNNY     88  58  36 MISG      30.20F
LAMAR          MOSUNNY   90  59  35 SE10      30.16F
SPRINGFIELD      N/A     81  64  56 S15       30.22F
$$



USA.gov is the U.S. government's official web portal to all federal, state and local government web resources and services.